Time,TemperatureF,DewpointF,PressureIn,WindDirection,WindDirectionDegrees,WindSpeedMPH,WindSpeedGustMPH,Humidity,HourlyPrecipIn,Conditions,Clouds,dailyrainin,SoftwareType,DateUTC
2013-02-16 00:00:00,69.8,69.8,29.86,East,79,0.0,0.0,100,0.08,,,0.00,Wunderground v.1.15,2013-02-16 05:00:00,
2013-02-16 00:05:00,69.8,69.8,29.86,East,79,0.0,0.0,100,0.08,,,0.00,Wunderground v.1.15,2013-02-16 05:05:00,
2013-02-16 00:10:00,69.8,69.8,29.86,East,79,0.0,0.0,100,0.09,,,0.01,Wunderground v.1.15,2013-02-16 05:10:00,
2013-02-16 00:15:00,69.6,69.6,29.85,East,79,0.0,0.0,100,0.07,,,0.01,Wunderground v.1.15,2013-02-16 05:15:00,
2013-02-16 00:20:00,69.6,69.6,29.85,East,79,0.0,0.0,100,0.07,,,0.02,Wunderground v.1.15,2013-02-16 05:20:00,
2013-02-16 00:25:00,69.8,69.8,29.85,East,80,0.0,0.0,100,0.07,,,0.03,Wunderground v.1.15,2013-02-16 05:25:00,
2013-02-16 00:30:00,69.9,69.9,29.85,SSW,206,1.0,6.0,100,0.07,,,0.03,Wunderground v.1.15,2013-02-16 05:30:00,
2013-02-16 00:35:00,69.9,69.9,29.85,SSW,213,4.0,7.0,100,0.05,,,0.03,Wunderground v.1.15,2013-02-16 05:35:00,
2013-02-16 00:40:00,69.9,69.9,29.85,SW,219,6.0,6.0,100,0.05,,,0.04,Wunderground v.1.15,2013-02-16 05:40:00,
2013-02-16 00:45:00,70.1,70.1,29.85,SW,234,7.0,11.0,100,0.06,,,0.04,Wunderground v.1.15,2013-02-16 05:45:00,
2013-02-16 00:50:00,69.9,69.9,29.85,SSW,213,8.0,8.0,100,0.06,,,0.05,Wunderground v.1.15,2013-02-16 05:50:00,
2013-02-16 00:55:00,70.1,70.1,29.85,WSW,258,9.0,9.0,100,0.06,,,0.05,Wunderground v.1.15,2013-02-16 05:55:00,
2013-02-16 01:05:00,69.8,69.8,29.85,WSW,243,9.0,11.0,100,0.06,,,0.06,Wunderground v.1.15,2013-02-16 06:05:00,
2013-02-16 01:15:00,69.3,69.3,29.84,SSW,192,10.0,10.0,100,0.08,,,0.08,Wunderground v.1.15,2013-02-16 06:15:00,
2013-02-16 01:20:00,69.1,69.1,29.84,SW,230,8.0,8.0,100,0.12,,,0.09,Wunderground v.1.15,2013-02-16 06:20:00,
2013-02-16 01:30:00,69.8,69.8,29.83,WSW,243,6.0,6.0,100,0.11,,,0.10,Wunderground v.1.15,2013-02-16 06:30:00,
2013-02-16 01:40:00,69.6,69.6,29.83,SW,224,6.0,6.0,100,0.05,,,0.11,Wunderground v.1.15,2013-02-16 06:40:00,
2013-02-16 01:45:00,69.3,69.3,29.82,SW,229,5.0,10.0,100,0.05,,,0.11,Wunderground v.1.15,2013-02-16 06:45:00,
2013-02-16 01:50:00,69.3,69.3,29.82,WSW,251,6.0,6.0,100,0.04,,,0.11,Wunderground v.1.15,2013-02-16 06:50:00,
2013-02-16 02:00:00,69.6,69.6,29.82,WSW,248,5.0,5.0,100,0.00,,,0.11,Wunderground v.1.15,2013-02-16 07:00:00,
2013-02-16 02:10:00,69.6,69.6,29.82,WSW,257,5.0,5.0,100,0.00,,,0.11,Wunderground v.1.15,2013-02-16 07:10:00,
2013-02-16 02:20:00,69.9,69.9,29.81,WSW,248,3.0,3.0,100,0.00,,,0.12,Wunderground v.1.15,2013-02-16 07:20:00,
2013-02-16 02:25:00,70.1,70.1,29.81,WSW,246,3.0,3.0,100,0.00,,,0.12,Wunderground v.1.15,2013-02-16 07:25:00,
2013-02-16 02:30:00,70.1,70.1,29.81,WSW,244,2.0,2.0,100,0.07,,,0.13,Wunderground v.1.15,2013-02-16 07:30:00,
2013-02-16 02:35:00,70.3,70.3,29.81,WSW,257,1.0,2.0,100,0.17,,,0.14,Wunderground v.1.15,2013-02-16 07:35:00,
2013-02-16 02:40:00,70.1,70.1,29.81,West,277,1.0,1.0,100,0.14,,,0.16,Wunderground v.1.15,2013-02-16 07:40:00,
2013-02-16 03:00:00,69.9,69.9,29.80,WSW,254,2.0,2.0,100,0.05,,,0.18,Wunderground v.1.15,2013-02-16 08:00:00,
2013-02-16 03:05:00,69.9,69.9,29.80,West,260,3.0,3.0,100,0.04,,,0.18,Wunderground v.1.15,2013-02-16 08:05:00,
2013-02-16 03:10:00,69.9,69.9,29.80,SW,215,3.0,7.0,100,0.00,,,0.18,Wunderground v.1.15,2013-02-16 08:10:00,
2013-02-16 03:15:00,69.8,69.8,29.80,West,278,3.0,7.0,100,0.00,,,0.18,Wunderground v.1.15,2013-02-16 08:15:00,
2013-02-16 03:20:00,69.8,69.8,29.80,West,260,4.0,6.0,100,0.00,,,0.18,Wunderground v.1.15,2013-02-16 08:20:00,
2013-02-16 03:30:00,69.9,69.9,29.80,West,268,3.0,3.0,100,0.00,,,0.18,Wunderground v.1.15,2013-02-16 08:30:00,
2013-02-16 03:35:00,69.9,69.9,29.80,West,260,3.0,3.0,100,0.00,,,0.18,Wunderground v.1.15,2013-02-16 08:35:00,
2013-02-16 03:40:00,69.9,69.9,29.80,West,260,3.0,3.0,100,0.00,,,0.18,Wunderground v.1.15,2013-02-16 08:40:00,
2013-02-16 03:50:00,70.1,70.1,29.80,West,265,3.0,4.0,100,0.00,,,0.19,Wunderground v.1.15,2013-02-16 08:50:00,
2013-02-16 03:55:00,70.1,70.1,29.80,North,352,5.0,8.0,100,0.00,,,0.19,Wunderground v.1.15,2013-02-16 08:55:00,
2013-02-16 04:05:00,69.8,69.8,29.80,North,354,6.0,7.0,100,0.04,,,0.20,Wunderground v.1.15,2013-02-16 09:05:00,
2013-02-16 04:15:00,68.9,68.9,29.80,NW,322,7.0,7.0,100,0.04,,,0.20,Wunderground v.1.15,2013-02-16 09:15:00,
2013-02-16 04:20:00,68.9,68.9,29.80,North,3,7.0,7.0,100,0.00,,,0.20,Wunderground v.1.15,2013-02-16 09:20:00,
2013-02-16 04:25:00,68.6,68.6,29.80,North,1,6.0,7.0,100,0.00,,,0.20,Wunderground v.1.15,2013-02-16 09:25:00,
2013-02-16 04:35:00,68.3,68.3,29.80,NNW,336,7.0,10.0,100,0.00,,,0.20,Wunderground v.1.15,2013-02-16 09:35:00,
2013-02-16 04:45:00,68.3,68.3,29.80,North,349,7.0,8.0,100,0.00,,,0.20,Wunderground v.1.15,2013-02-16 09:45:00,
2013-02-16 04:55:00,67.9,67.9,29.80,NW,325,6.0,7.0,100,0.00,,,0.20,Wunderground v.1.15,2013-02-16 09:55:00,
2013-02-16 05:05:00,67.8,67.8,29.80,NNW,343,7.0,7.0,100,0.00,,,0.20,Wunderground v.1.15,2013-02-16 10:05:00,
2013-02-16 05:10:00,67.8,67.8,29.80,North,4,7.0,7.0,100,0.00,,,0.20,Wunderground v.1.15,2013-02-16 10:10:00,
2013-02-16 05:15:00,67.8,67.8,29.80,NNE,14,7.0,7.0,100,0.00,,,0.20,Wunderground v.1.15,2013-02-16 10:15:00,
2013-02-16 05:20:00,67.6,67.6,29.80,NNE,21,6.0,9.0,100,0.00,,,0.20,Wunderground v.1.15,2013-02-16 10:20:00,
2013-02-16 05:25:00,67.6,67.6,29.80,North,350,6.0,9.0,100,0.00,,,0.20,Wunderground v.1.15,2013-02-16 10:25:00,
2013-02-16 05:35:00,67.3,67.3,29.80,North,356,6.0,7.0,100,0.00,,,0.20,Wunderground v.1.15,2013-02-16 10:35:00,
2013-02-16 05:45:00,67.8,67.8,29.80,NNE,27,7.0,8.0,100,0.00,,,0.20,Wunderground v.1.15,2013-02-16 10:45:00,
2013-02-16 05:55:00,67.9,67.9,29.80,NNE,13,8.0,8.0,100,0.00,,,0.20,Wunderground v.1.15,2013-02-16 10:55:00,
2013-02-16 06:05:00,68.1,68.1,29.81,NNE,17,7.0,7.0,100,0.00,,,0.20,Wunderground v.1.15,2013-02-16 11:05:00,
2013-02-16 06:15:00,67.9,67.9,29.81,North,10,6.0,7.0,100,0.00,,,0.20,Wunderground v.1.15,2013-02-16 11:15:00,
2013-02-16 06:25:00,68.3,68.3,29.81,North,356,6.0,6.0,100,0.00,,,0.20,Wunderground v.1.15,2013-02-16 11:25:00,
2013-02-16 06:30:00,68.4,68.4,29.82,NNE,14,6.0,10.0,100,0.00,,,0.20,Wunderground v.1.15,2013-02-16 11:30:00,
2013-02-16 06:35:00,68.6,68.6,29.82,NNE,13,6.0,10.0,100,0.00,,,0.20,Wunderground v.1.15,2013-02-16 11:35:00,
2013-02-16 06:40:00,68.6,68.6,29.82,NNE,14,6.0,7.0,100,0.00,,,0.20,Wunderground v.1.15,2013-02-16 11:40:00,
2013-02-16 06:45:00,68.6,68.6,29.83,NNW,346,6.0,7.0,100,0.00,,,0.20,Wunderground v.1.15,2013-02-16 11:45:00,
2013-02-16 06:55:00,68.3,68.3,29.83,North,10,5.0,5.0,100,0.00,,,0.20,Wunderground v.1.15,2013-02-16 11:55:00,
2013-02-16 07:00:00,68.3,68.3,29.84,North,356,6.0,7.0,100,0.00,,,0.20,Wunderground v.1.15,2013-02-16 12:00:00,
2013-02-16 07:10:00,68.6,68.6,29.84,North,0,6.0,11.0,100,0.00,,,0.20,Wunderground v.1.15,2013-02-16 12:10:00,
2013-02-16 07:20:00,68.3,68.3,29.84,North,357,6.0,8.0,100,0.00,,,0.20,Wunderground v.1.15,2013-02-16 12:20:00,
2013-02-16 07:25:00,68.4,68.4,29.84,NNE,21,6.0,8.0,100,0.00,,,0.20,Wunderground v.1.15,2013-02-16 12:25:00,
2013-02-16 07:30:00,68.6,68.6,29.85,North,0,6.0,6.0,100,0.00,,,0.20,Wunderground v.1.15,2013-02-16 12:30:00,
2013-02-16 07:40:00,68.4,68.4,29.85,North,350,6.0,6.0,100,0.00,,,0.20,Wunderground v.1.15,2013-02-16 12:40:00,
2013-02-16 07:45:00,68.4,68.4,29.85,North,359,6.0,6.0,100,0.00,,,0.20,Wunderground v.1.15,2013-02-16 12:45:00,
2013-02-16 07:55:00,68.4,68.4,29.85,NW,325,6.0,10.0,100,0.00,,,0.20,Wunderground v.1.15,2013-02-16 12:55:00,
2013-02-16 08:00:00,68.4,68.4,29.84,North,356,5.0,7.0,100,0.00,,,0.20,Wunderground v.1.15,2013-02-16 13:00:00,
2013-02-16 08:10:00,68.4,68.4,29.84,NNE,13,6.0,6.0,100,0.00,,,0.20,Wunderground v.1.15,2013-02-16 13:10:00,
2013-02-16 08:20:00,68.4,68.4,29.85,NNE,14,4.0,11.0,100,0.00,,,0.20,Wunderground v.1.15,2013-02-16 13:20:00,
2013-02-16 08:25:00,68.4,68.4,29.85,North,3,6.0,11.0,100,0.00,,,0.20,Wunderground v.1.15,2013-02-16 13:25:00,
2013-02-16 08:30:00,68.4,68.4,29.85,North,356,5.0,5.0,100,0.00,,,0.20,Wunderground v.1.15,2013-02-16 13:30:00,
2013-02-16 08:35:00,68.6,68.6,29.85,North,359,3.0,5.0,100,0.00,,,0.20,Wunderground v.1.15,2013-02-16 13:35:00,
2013-02-16 08:45:00,68.6,68.6,29.85,North,0,3.0,7.0,100,0.00,,,0.20,Wunderground v.1.15,2013-02-16 13:45:00,
2013-02-16 08:50:00,68.6,68.6,29.85,North,0,4.0,4.0,100,0.00,,,0.20,Wunderground v.1.15,2013-02-16 13:50:00,
2013-02-16 08:55:00,68.8,68.8,29.85,North,353,4.0,4.0,100,0.00,,,0.20,Wunderground v.1.15,2013-02-16 13:55:00,
2013-02-16 09:05:00,68.8,68.8,29.85,North,353,5.0,6.0,100,0.00,,,0.20,Wunderground v.1.15,2013-02-16 14:05:00,
2013-02-16 09:15:00,68.8,68.8,29.85,North,0,5.0,5.0,100,0.00,,,0.20,Wunderground v.1.15,2013-02-16 14:15:00,
2013-02-16 09:20:00,68.9,68.9,29.85,NNE,20,4.0,6.0,100,0.00,,,0.20,Wunderground v.1.15,2013-02-16 14:20:00,
2013-02-16 09:25:00,69.1,69.1,29.85,North,357,4.0,6.0,100,0.00,,,0.20,Wunderground v.1.15,2013-02-16 14:25:00,
2013-02-16 09:30:00,69.3,69.3,29.86,NNW,335,4.0,6.0,100,0.00,,,0.20,Wunderground v.1.15,2013-02-16 14:30:00,
2013-02-16 09:35:00,69.4,69.4,29.86,North,0,4.0,6.0,100,0.00,,,0.20,Wunderground v.1.15,2013-02-16 14:35:00,
2013-02-16 09:40:00,69.4,69.4,29.86,North,354,4.0,4.0,100,0.00,,,0.20,Wunderground v.1.15,2013-02-16 14:40:00,
2013-02-16 09:45:00,69.8,69.8,29.86,NNW,346,4.0,4.0,100,0.00,,,0.20,Wunderground v.1.15,2013-02-16 14:45:00,
2013-02-16 09:50:00,69.8,69.8,29.86,North,0,5.0,6.0,100,0.00,,,0.20,Wunderground v.1.15,2013-02-16 14:50:00,
2013-02-16 10:00:00,70.1,70.1,29.87,NNW,339,5.0,5.0,100,0.00,,,0.20,Wunderground v.1.15,2013-02-16 15:00:00,
2013-02-16 10:05:00,70.1,70.1,29.87,NNW,336,5.0,6.0,100,0.00,,,0.20,Wunderground v.1.15,2013-02-16 15:05:00,
2013-02-16 10:15:00,70.3,70.3,29.88,WNW,294,5.0,8.0,100,0.00,,,0.20,Wunderground v.1.15,2013-02-16 15:15:00,
2013-02-16 10:20:00,70.4,70.4,29.88,WNW,299,5.0,5.0,100,0.00,,,0.20,Wunderground v.1.15,2013-02-16 15:20:00,
2013-02-16 10:30:00,70.9,70.9,29.88,NNW,333,6.0,6.0,100,0.00,,,0.20,Wunderground v.1.15,2013-02-16 15:30:00,
2013-02-16 10:40:00,70.9,70.9,29.88,North,352,6.0,6.0,100,0.00,,,0.20,Wunderground v.1.15,2013-02-16 15:40:00,
2013-02-16 10:45:00,71.1,71.1,29.88,North,359,6.0,7.0,100,0.00,,,0.20,Wunderground v.1.15,2013-02-16 15:45:00,
2013-02-16 10:55:00,71.1,71.1,29.88,NNW,339,7.0,11.0,100,0.00,,,0.20,Wunderground v.1.15,2013-02-16 15:55:00,
2013-02-16 11:05:00,71.1,71.1,29.89,NW,315,10.0,11.0,100,0.00,,,0.20,Wunderground v.1.15,2013-02-16 16:05:00,
2013-02-16 11:15:00,71.3,71.3,29.88,NNW,329,8.0,12.0,100,0.00,,,0.20,Wunderground v.1.15,2013-02-16 16:15:00,
2013-02-16 11:20:00,71.1,71.1,29.88,NW,322,9.0,18.0,100,0.00,,,0.20,Wunderground v.1.15,2013-02-16 16:20:00,
2013-02-16 11:30:00,70.8,70.8,29.89,NW,322,11.0,11.0,100,0.00,,,0.20,Wunderground v.1.15,2013-02-16 16:30:00,
2013-02-16 11:40:00,70.8,70.8,29.89,NNW,339,10.0,11.0,100,0.00,,,0.20,Wunderground v.1.15,2013-02-16 16:40:00,
2013-02-16 11:45:00,70.4,70.4,29.89,NW,304,11.0,11.0,100,0.00,,,0.20,Wunderground v.1.15,2013-02-16 16:45:00,
2013-02-16 11:55:00,70.6,70.6,29.89,NNW,339,10.0,14.0,100,0.00,,,0.20,Wunderground v.1.15,2013-02-16 16:55:00,
2013-02-16 12:00:00,70.6,70.6,29.89,NW,309,11.0,11.0,100,0.00,,,0.20,Wunderground v.1.15,2013-02-16 17:00:00,
2013-02-16 12:05:00,70.3,70.3,29.89,WNW,296,13.0,13.0,100,0.00,,,0.20,Wunderground v.1.15,2013-02-16 17:05:00,
2013-02-16 12:10:00,70.6,70.6,29.89,NNW,329,13.0,13.0,100,0.00,,,0.20,Wunderground v.1.15,2013-02-16 17:10:00,
2013-02-16 12:15:00,70.4,70.4,29.89,NW,325,12.0,13.0,100,0.00,,,0.20,Wunderground v.1.15,2013-02-16 17:15:00,
2013-02-16 12:20:00,70.1,70.1,29.89,NW,323,12.0,12.0,100,0.00,,,0.20,Wunderground v.1.15,2013-02-16 17:20:00,
2013-02-16 12:30:00,69.4,69.4,29.89,NW,308,12.0,12.0,100,0.00,,,0.20,Wunderground v.1.15,2013-02-16 17:30:00,
2013-02-16 12:40:00,70.1,70.1,29.89,WNW,296,12.0,12.0,100,0.00,,,0.21,Wunderground v.1.15,2013-02-16 17:40:00,
2013-02-16 12:50:00,70.3,70.3,29.88,NW,311,13.0,17.0,100,0.00,,,0.21,Wunderground v.1.15,2013-02-16 17:50:00,
2013-02-16 12:55:00,70.3,70.3,29.88,WNW,302,12.0,17.0,100,0.00,,,0.21,Wunderground v.1.15,2013-02-16 17:55:00,
2013-02-16 13:05:00,69.8,69.8,29.88,NNW,333,13.0,13.0,100,0.00,,,0.21,Wunderground v.1.15,2013-02-16 18:05:00,
2013-02-16 13:15:00,69.9,69.9,29.88,NNW,336,12.0,13.0,100,0.00,,,0.21,Wunderground v.1.15,2013-02-16 18:15:00,
2013-02-16 13:20:00,69.9,69.9,29.88,NNW,329,12.0,12.0,100,0.00,,,0.21,Wunderground v.1.15,2013-02-16 18:20:00,
2013-02-16 13:30:00,69.9,69.9,29.88,NW,312,13.0,17.0,100,0.00,,,0.21,Wunderground v.1.15,2013-02-16 18:30:00,
2013-02-16 13:40:00,69.9,69.9,29.88,West,277,14.0,14.0,100,0.00,,,0.21,Wunderground v.1.15,2013-02-16 18:40:00,
2013-02-16 13:50:00,69.9,69.9,29.87,NW,325,12.0,16.0,100,0.00,,,0.21,Wunderground v.1.15,2013-02-16 18:50:00,
2013-02-16 14:00:00,70.1,70.1,29.87,NNW,340,15.0,15.0,100,0.00,,,0.21,Wunderground v.1.15,2013-02-16 19:00:00,
2013-02-16 14:05:00,69.6,69.6,29.87,NW,326,15.0,19.0,100,0.00,,,0.21,Wunderground v.1.15,2013-02-16 19:05:00,
2013-02-16 14:10:00,69.3,69.3,29.87,NW,316,16.0,16.0,100,0.00,,,0.21,Wunderground v.1.15,2013-02-16 19:10:00,
2013-02-16 14:15:00,69.4,69.4,29.87,WNW,288,15.0,26.0,100,0.00,,,0.21,Wunderground v.1.15,2013-02-16 19:15:00,
2013-02-16 14:25:00,68.8,68.8,29.87,NW,323,15.0,20.0,100,0.00,,,0.21,Wunderground v.1.15,2013-02-16 19:25:00,
2013-02-16 14:30:00,68.9,68.9,29.86,WNW,301,14.0,19.0,100,0.00,,,0.21,Wunderground v.1.15,2013-02-16 19:30:00,
2013-02-16 14:40:00,68.9,68.9,29.86,NW,316,14.0,14.0,100,0.00,,,0.21,Wunderground v.1.15,2013-02-16 19:40:00,
2013-02-16 14:45:00,68.8,68.8,29.87,NW,306,14.0,14.0,100,0.00,,,0.21,Wunderground v.1.15,2013-02-16 19:45:00,
2013-02-16 14:50:00,68.8,68.8,29.87,WNW,288,15.0,15.0,100,0.00,,,0.21,Wunderground v.1.15,2013-02-16 19:50:00,
2013-02-16 15:00:00,68.8,68.8,29.87,WNW,301,15.0,15.0,100,0.00,,,0.21,Wunderground v.1.15,2013-02-16 20:00:00,
2013-02-16 15:05:00,68.6,68.6,29.87,WNW,295,15.0,19.0,100,0.00,,,0.21,Wunderground v.1.15,2013-02-16 20:05:00,
2013-02-16 15:15:00,68.3,68.3,29.87,WNW,298,16.0,16.0,100,0.00,,,0.21,Wunderground v.1.15,2013-02-16 20:15:00,
2013-02-16 15:20:00,68.3,68.3,29.87,West,280,14.0,14.0,100,0.00,,,0.21,Wunderground v.1.15,2013-02-16 20:20:00,
2013-02-16 15:25:00,68.3,68.3,29.87,NW,326,13.0,21.0,100,0.00,,,0.21,Wunderground v.1.15,2013-02-16 20:25:00,
2013-02-16 15:35:00,67.9,67.9,29.88,WNW,289,15.0,15.0,100,0.00,,,0.21,Wunderground v.1.15,2013-02-16 20:35:00,
2013-02-16 15:45:00,67.8,67.8,29.88,NW,325,15.0,16.0,100,0.00,,,0.21,Wunderground v.1.15,2013-02-16 20:45:00,
2013-02-16 15:50:00,67.8,67.8,29.88,NW,322,15.0,18.0,100,0.00,,,0.21,Wunderground v.1.15,2013-02-16 20:50:00,
2013-02-16 16:00:00,67.6,67.6,29.88,NNW,330,14.0,16.0,100,0.00,,,0.21,Wunderground v.1.15,2013-02-16 21:00:00,
2013-02-16 16:10:00,67.6,67.6,29.88,NW,313,14.0,14.0,100,0.00,,,0.21,Wunderground v.1.15,2013-02-16 21:10:00,
2013-02-16 16:15:00,67.4,67.4,29.89,WNW,302,15.0,15.0,100,0.00,,,0.21,Wunderground v.1.15,2013-02-16 21:15:00,
2013-02-16 16:25:00,67.6,67.6,29.89,NW,322,14.0,18.0,100,0.00,,,0.21,Wunderground v.1.15,2013-02-16 21:25:00,
2013-02-16 16:35:00,67.6,67.6,29.89,WNW,296,14.0,14.0,100,0.00,,,0.21,Wunderground v.1.15,2013-02-16 21:35:00,
2013-02-16 16:45:00,68.1,68.1,29.89,NW,315,15.0,18.0,100,0.00,,,0.21,Wunderground v.1.15,2013-02-16 21:45:00,
2013-02-16 16:50:00,68.1,68.1,29.89,WNW,301,15.0,15.0,100,0.00,,,0.21,Wunderground v.1.15,2013-02-16 21:50:00,
2013-02-16 17:00:00,67.9,67.9,29.90,WNW,294,15.0,19.0,100,0.00,,,0.21,Wunderground v.1.15,2013-02-16 22:00:00,
2013-02-16 17:05:00,67.9,67.9,29.90,WNW,289,15.0,19.0,100,0.00,,,0.21,Wunderground v.1.15,2013-02-16 22:05:00,
2013-02-16 17:10:00,67.9,67.9,29.90,NW,311,16.0,16.0,100,0.00,,,0.21,Wunderground v.1.15,2013-02-16 22:10:00,
2013-02-16 17:15:00,67.9,67.9,29.90,NW,318,16.0,16.0,100,0.00,,,0.21,Wunderground v.1.15,2013-02-16 22:15:00,
2013-02-16 17:20:00,67.8,67.8,29.90,WNW,301,16.0,18.0,100,0.00,,,0.21,Wunderground v.1.15,2013-02-16 22:20:00,
2013-02-16 17:30:00,67.8,67.8,29.90,WNW,302,15.0,15.0,100,0.00,,,0.21,Wunderground v.1.15,2013-02-16 22:30:00,
2013-02-16 17:40:00,67.8,67.8,29.90,WNW,299,16.0,26.0,100,0.00,,,0.21,Wunderground v.1.15,2013-02-16 22:40:00,
2013-02-16 17:45:00,67.8,67.8,29.90,WNW,301,15.0,26.0,100,0.00,,,0.21,Wunderground v.1.15,2013-02-16 22:45:00,
2013-02-16 17:50:00,67.6,67.6,29.90,WNW,296,15.0,17.0,100,0.00,,,0.21,Wunderground v.1.15,2013-02-16 22:50:00,
2013-02-16 18:00:00,67.9,67.9,29.91,NW,319,15.0,25.0,100,0.00,,,0.21,Wunderground v.1.15,2013-02-16 23:00:00,
2013-02-16 18:10:00,67.8,67.8,29.91,NW,304,15.0,19.0,100,0.00,,,0.21,Wunderground v.1.15,2013-02-16 23:10:00,
2013-02-16 18:15:00,67.8,67.8,29.91,NW,309,18.0,19.0,100,0.00,,,0.21,Wunderground v.1.15,2013-02-16 23:15:00,
2013-02-16 18:25:00,67.8,67.8,29.91,WNW,292,16.0,17.0,100,0.00,,,0.21,Wunderground v.1.15,2013-02-16 23:25:00,
2013-02-16 18:35:00,67.9,67.9,29.91,NW,313,16.0,25.0,100,0.00,,,0.21,Wunderground v.1.15,2013-02-16 23:35:00,
2013-02-16 18:40:00,67.8,67.8,29.91,NW,313,16.0,17.0,100,0.00,,,0.21,Wunderground v.1.15,2013-02-16 23:40:00,
2013-02-16 18:45:00,67.9,67.9,29.91,NW,315,17.0,17.0,100,0.00,,,0.21,Wunderground v.1.15,2013-02-16 23:45:00,
2013-02-16 18:55:00,68.1,68.1,29.91,NW,304,15.0,17.0,100,0.00,,,0.21,Wunderground v.1.15,2013-02-16 23:55:00,
2013-02-16 19:00:00,68.1,68.1,29.91,WNW,299,15.0,15.0,100,0.00,,,0.21,Wunderground v.1.15,2013-02-17 00:00:00,
2013-02-16 19:10:00,68.1,68.1,29.91,NW,319,15.0,15.0,100,0.00,,,0.21,Wunderground v.1.15,2013-02-17 00:10:00,
2013-02-16 19:20:00,67.6,67.6,29.92,NNW,332,16.0,16.0,100,0.00,,,0.21,Wunderground v.1.15,2013-02-17 00:20:00,
2013-02-16 19:25:00,67.6,67.6,29.92,North,10,16.0,16.0,100,0.00,,,0.21,Wunderground v.1.15,2013-02-17 00:25:00,
2013-02-16 19:35:00,67.1,67.1,29.92,NW,309,15.0,15.0,100,0.00,,,0.21,Wunderground v.1.15,2013-02-17 00:35:00,
2013-02-16 19:40:00,67.3,67.3,29.92,NW,318,15.0,17.0,100,0.00,,,0.21,Wunderground v.1.15,2013-02-17 00:40:00,
2013-02-16 19:50:00,66.9,66.9,29.93,NW,312,16.0,16.0,100,0.00,,,0.21,Wunderground v.1.15,2013-02-17 00:50:00,
2013-02-16 19:55:00,66.6,66.6,29.93,WNW,301,17.0,17.0,100,0.00,,,0.21,Wunderground v.1.15,2013-02-17 00:55:00,
2013-02-16 20:05:00,66.8,66.8,29.93,NW,304,17.0,17.0,100,0.00,,,0.21,Wunderground v.1.15,2013-02-17 01:05:00,
2013-02-16 20:15:00,66.6,66.6,29.94,WNW,299,18.0,18.0,100,0.00,,,0.21,Wunderground v.1.15,2013-02-17 01:15:00,
2013-02-16 20:20:00,66.6,66.6,29.94,NW,325,17.0,20.0,100,0.00,,,0.21,Wunderground v.1.15,2013-02-17 01:20:00,
2013-02-16 20:30:00,66.4,66.4,29.96,WNW,296,16.0,16.0,100,0.00,,,0.21,Wunderground v.1.15,2013-02-17 01:30:00,
2013-02-16 20:40:00,66.1,66.1,29.96,NW,316,15.0,22.0,100,0.00,,,0.21,Wunderground v.1.15,2013-02-17 01:40:00,
2013-02-16 20:45:00,66.0,66.0,29.97,NW,304,15.0,22.0,100,0.00,,,0.21,Wunderground v.1.15,2013-02-17 01:45:00,
2013-02-16 20:55:00,66.0,66.0,29.97,NW,311,15.0,18.0,100,0.00,,,0.21,Wunderground v.1.15,2013-02-17 01:55:00,
2013-02-16 21:05:00,65.8,65.8,29.97,NNW,330,16.0,17.0,100,0.00,,,0.21,Wunderground v.1.15,2013-02-17 02:05:00,
2013-02-16 21:15:00,65.5,65.5,29.98,NW,318,15.0,20.0,100,0.00,,,0.21,Wunderground v.1.15,2013-02-17 02:15:00,
2013-02-16 21:25:00,65.3,65.3,29.98,NNW,333,15.0,15.0,100,0.00,,,0.21,Wunderground v.1.15,2013-02-17 02:25:00,
2013-02-16 21:35:00,65.3,65.3,29.98,NW,308,15.0,21.0,100,0.00,,,0.21,Wunderground v.1.15,2013-02-17 02:35:00,
2013-02-16 21:40:00,65.3,65.3,29.98,West,268,15.0,15.0,100,0.00,,,0.21,Wunderground v.1.15,2013-02-17 02:40:00,
2013-02-16 21:45:00,65.3,65.3,29.99,WNW,302,16.0,20.0,100,0.00,,,0.21,Wunderground v.1.15,2013-02-17 02:45:00,
2013-02-16 21:50:00,65.3,65.3,29.99,North,0,15.0,15.0,100,0.00,,,0.21,Wunderground v.1.15,2013-02-17 02:50:00,
2013-02-16 21:55:00,65.2,65.2,29.99,WNW,294,15.0,15.0,100,0.00,,,0.21,Wunderground v.1.15,2013-02-17 02:55:00,
2013-02-16 22:05:00,65.2,65.2,29.99,North,350,12.0,14.0,100,0.00,,,0.21,Wunderground v.1.15,2013-02-17 03:05:00,
2013-02-16 22:10:00,65.2,65.2,29.99,NNW,342,12.0,15.0,100,0.00,,,0.21,Wunderground v.1.15,2013-02-17 03:10:00,
2013-02-16 22:20:00,65.3,65.3,29.99,NNW,346,14.0,14.0,100,0.00,,,0.21,Wunderground v.1.15,2013-02-17 03:20:00,
2013-02-16 22:25:00,65.3,65.3,29.99,NW,308,14.0,14.0,100,0.00,,,0.21,Wunderground v.1.15,2013-02-17 03:25:00,
2013-02-16 22:35:00,65.3,65.3,29.99,North,353,13.0,14.0,100,0.00,,,0.21,Wunderground v.1.15,2013-02-17 03:35:00,
2013-02-16 22:45:00,65.3,65.3,30.00,NNW,335,14.0,17.0,100,0.00,,,0.21,Wunderground v.1.15,2013-02-17 03:45:00,
2013-02-16 22:55:00,65.5,65.5,30.00,NNW,328,14.0,17.0,100,0.00,,,0.21,Wunderground v.1.15,2013-02-17 03:55:00,
2013-02-16 23:05:00,65.6,65.6,30.00,NW,318,16.0,18.0,100,0.00,,,0.21,Wunderground v.1.15,2013-02-17 04:05:00,
2013-02-16 23:15:00,65.8,65.8,30.00,NW,312,15.0,16.0,100,0.00,,,0.21,Wunderground v.1.15,2013-02-17 04:15:00,
2013-02-16 23:25:00,65.8,65.8,30.00,NNW,332,15.0,24.0,100,0.00,,,0.21,Wunderground v.1.15,2013-02-17 04:25:00,
2013-02-16 23:30:00,65.8,65.8,30.00,NW,309,15.0,15.0,100,0.00,,,0.21,Wunderground v.1.15,2013-02-17 04:30:00,
2013-02-16 23:40:00,65.8,65.8,30.00,NW,305,15.0,26.0,100,0.00,,,0.21,Wunderground v.1.15,2013-02-17 04:40:00,
2013-02-16 23:45:00,65.6,65.6,30.00,NW,309,16.0,26.0,100,0.00,,,0.21,Wunderground v.1.15,2013-02-17 04:45:00,
2013-02-16 23:50:00,65.6,65.6,30.00,West,277,16.0,18.0,100,0.00,,,0.21,Wunderground v.1.15,2013-02-17 04:50:00,